Track STARLINK-3068 now! 10-day predictions STARLINK-3068 is classified as:
1 49154U 21082AA 22223.68587395 .00000243 00000-0 29218-4 0 9993 2 49154 70.0004 327.2404 0002966 245.5307 114.5542 14.96704955 51926